This demonstration page uses our WeatherBlox Daily Observations layout. Learn more.

Left ArrowRight Arrow

34.74481, -87.66753

Hourly Observations for August 18, 2015

Temp ( °F °C ) Dew Point ( °F °C ) Humidity (%) Winds ( mph kmh ) Pressure ( in mb ) Visibility ( mi km ) Precip ( " mm )
6:20 am 06:20 Cloudy 74 23.3 71 21.7 91 91 Calm 29.94 1014 8 13 0.00 0.00
6:53 am 06:53 Mostly Cloudy with Mist and Fog 74 23.3 71 21.7 91 91 Calm 29.95 1014 6 10 0.00 0.00
7:53 am 07:53 Cloudy 75 23.9 72 22.2 90 90 Calm 29.96 1014 8 13 0.00 0.00
8:32 am 08:32 Cloudy 76 24.4 72 22.2 88 88 Calm 29.94 1014 10 16 0.00 0.00
8:48 am 08:48 Mostly Cloudy 75 24 72 22 89 89 Calm 29.94 1014 10 16 0.00 0.00
8:53 am 08:53 Mostly Cloudy 77 25 72 22.2 85 85 Calm 29.96 1015 10 16 0.00 0.00
9:53 am 09:53 Cloudy 79 26.1 72 22.2 79 79 Calm 29.96 1015 10 16 0.00 0.00
10:12 am 10:12 Mostly Cloudy 80 26.7 73 22.8 79 79 W 3 6 29.94 1014 10 16 0.00 0.00
10:53 am 10:53 Mostly Cloudy 82 27.8 72 22.2 72 72 W 5 7 29.96 1015 10 16 0.00 0.00
11:19 am 11:19 Mostly Cloudy 82 27.8 72 22.2 72 72 WSW 6 9 29.94 1014 10 16 0.00 0.00
11:42 am 11:42 Partly Cloudy 85 29.4 72 22.2 65 65 VRB 3 6 29.94 1014 10 16 0.00 0.00
11:53 am 11:53 Mostly Cloudy with Heavy Rain 80 26.7 72 22.2 76 76 Calm 29.95 1014 1 2 0.10 2.54
12:02 pm 12:02 Mostly Cloudy with Heavy Rain 78 25.6 72 22.2 82 82 ESE 6 9 29.94 1014 1 1 0.21 5.33
12:10 pm 12:10 Mostly Cloudy with Light Rain 78 25.6 73 22.8 85 85 E 3 6 29.94 1014 2 3 0.22 5.59
12:12 pm 12:12 Mostly Cloudy with Mist and Fog 78 25.6 74 23.3 87 87 E 3 6 29.94 1014 6 10 0.22 5.59
12:53 pm 12:53 Sunny 84 28.9 75 23.9 74 74 WNW 7 11 29.92 1013 10 16 0.23 5.84
1:53 pm 13:53 Mostly Sunny 86 30 74 23.3 67 67 WSW 6 9 29.89 1012 10 16 0.00 0.00
2:53 pm 14:53 Mostly Cloudy 87 30.6 72 22.2 61 61 WNW 6 9 29.88 1012 10 16 0.00 0.00
3:53 pm 15:53 Partly Cloudy 87 30.6 73 22.8 63 63 W 7 11 29.87 1011 10 16 0.00 0.00
4:53 pm 16:53 Partly Cloudy 86 30 72 22.2 63 63 WSW 9 15 29.87 1011 10 16 0.00 0.00
5:53 pm 17:53 Sunny 85 29.4 72 22.2 65 65 WSW 9 15 29.85 1011 10 16 0.00 0.00
6:53 pm 18:53 Sunny 83 28.3 72 22.2 70 70 SSW 7 11 29.87 1011 10 16 0.00 0.00
7:53 pm 19:53 Clear 80 26.7 71 21.7 74 74 S 6 9 29.87 1012 10 16 0.00 0.00
8:53 pm 20:53 Clear 79 26.1 72 22.2 79 79 S 3 6 29.89 1012 10 16 0.00 0.00
9:53 pm 21:53 Clear 76 24.4 72 22.2 88 88 Calm 29.90 1013 10 16 0.00 0.00
10:53 pm 22:53 Clear 76 24.4 72 22.2 88 88 SE 3 6 29.90 1012 9 14 0.00 0.00
11:53 pm 23:53 Mostly Cloudy 77 25 72 22.2 85 85 S 3 6 29.89 1012 10 16 0.00 0.00

Powered by AerisWeather